,,PA_Meas_PMT16A,,PR_Meas_QMR101_102,,RH_Meas_QMH101,,SR_Meas_QMS101,,TA_Meas_QMH101,,GenWind,,GenWind,
time,status,PA,status,PR,status,RH,status,SR,status,TA,status,DirAvg,status,SpdAvg,
2013-11-12, 00:00:04,VALID,915.667,VALID,0,VALID,95.7958,VALID,0,VALID,20.1123,VALID,153,VALID,0,
2013-11-12, 00:01:04,VALID,915.67,VALID,0,VALID,95.7654,VALID,0.107441,VALID,20.1513,VALID,148,VALID,0,
2013-11-12, 00:02:04,VALID,915.651,VALID,0,VALID,95.7501,VALID,0.107441,VALID,20.1708,VALID,134,VALID,0,
2013-11-12, 00:03:04,VALID,915.699,VALID,0,VALID,95.7196,VALID,0.107441,VALID,20.1498,VALID,142,VALID,0,
2013-11-12, 00:04:04,VALID,915.677,VALID,0,VALID,95.7196,VALID,0,VALID,20.1708,VALID,147,VALID,0,
2013-11-12, 00:05:04,VALID,915.661,VALID,0,VALID,95.6891,VALID,0,VALID,20.1513,VALID,144,VALID,0,
2013-11-12, 00:06:04,VALID,915.705,VALID,0,VALID,95.6662,VALID,0,VALID,20.1513,VALID,144,VALID,0,
2013-11-12, 00:07:04,VALID,915.734,VALID,0,VALID,95.6129,VALID,0,VALID,20.1318,VALID,135,VALID,0,
2013-11-12, 00:08:04,VALID,915.69,VALID,0,VALID,95.5443,VALID,0,VALID,20.1529,VALID,139,VALID,0,
2013-11-12, 00:09:04,VALID,915.677,VALID,0,VALID,95.468,VALID,0,VALID,20.1919,VALID,146,VALID,0,
2013-11-12, 00:10:04,VALID,915.68,VALID,0,VALID,95.3766,VALID,0,VALID,20.1919,VALID,150,VALID,0,
2013-11-12, 00:11:04,VALID,915.661,VALID,0,VALID,95.3156,VALID,0,VALID,20.1919,VALID,145,VALID,0,
2013-11-12, 00:12:04,VALID,915.665,VALID,0,VALID,95.2088,VALID,0,VALID,20.2114,VALID,103,VALID,0,
2013-11-12, 00:13:04,VALID,915.643,VALID,0,VALID,95.1097,VALID,0,VALID,20.1919,VALID,131,VALID,0,
2013-11-12, 00:14:04,VALID,915.608,VALID,0,VALID,95.064,VALID,0,VALID,20.1724,VALID,134,VALID,0,
2013-11-12, 00:15:04,VALID,915.641,VALID,0,VALID,95.0259,VALID,0,VALID,20.1724,VALID,131,VALID,0,
2013-11-12, 00:16:04,VALID,915.646,VALID,0,VALID,94.9725,VALID,0,VALID,20.1724,VALID,125,VALID,0,
2013-11-12, 00:17:04,VALID,915.611,VALID,0,VALID,94.9725,VALID,0,VALID,20.1919,VALID,137,VALID,0,
2013-11-12, 00:18:04,VALID,915.618,VALID,0,VALID,94.942,VALID,0,VALID,20.1934,VALID,134,VALID,0,
2013-11-12, 00:19:04,VALID,915.612,VALID,0,VALID,94.8963,VALID,0,VALID,20.1919,VALID,135,VALID,0,
2013-11-12, 00:20:04,VALID,915.619,VALID,0,VALID,94.82,VALID,0,VALID,20.2114,VALID,145,VALID,0,
2013-11-12, 00:21:04,VALID,915.626,VALID,0,VALID,94.7591,VALID,0,VALID,20.2309,VALID,129,VALID,0,
2013-11-12, 00:22:04,VALID,915.618,VALID,0,VALID,94.7133,VALID,0,VALID,20.2309,VALID,116,VALID,0,
2013-11-12, 00:23:04,VALID,915.617,VALID,0,VALID,94.5761,VALID,0,VALID,20.2504,VALID,124,VALID,0,
2013-11-12, 00:24:04,VALID,915.616,VALID,0,VALID,94.4846,VALID,0,VALID,20.2504,VALID,127,VALID,0,
2013-11-12, 00:25:04,VALID,915.605,VALID,0,VALID,94.4541,VALID,0,VALID,20.2699,VALID,113,VALID,0,
2013-11-12, 00:26:04,VALID,915.593,VALID,0,VALID,94.4541,VALID,0,VALID,20.2293,VALID,117,VALID,0,
2013-11-12, 00:27:04,VALID,915.601,VALID,0,VALID,94.4846,VALID,0,VALID,20.2293,VALID,134,VALID,0,
2013-11-12, 00:28:04,VALID,915.633,VALID,0,VALID,94.4694,VALID,0,VALID,20.2293,VALID,127,VALID,0,
2013-11-12, 00:29:04,VALID,915.591,VALID,0,VALID,94.3931,VALID,0,VALID,20.2489,VALID,126,VALID,0,
2013-11-12, 00:30:04,VALID,915.584,VALID,0,VALID,94.2483,VALID,0,VALID,20.2489,VALID,123,VALID,0,
2013-11-12, 00:31:04,VALID,915.57,VALID,0,VALID,94.1797,VALID,0,VALID,20.2684,VALID,133,VALID,0,
2013-11-12, 00:32:04,VALID,915.556,VALID,0,VALID,94.2254,VALID,0,VALID,20.2684,VALID,126,VALID,0,
2013-11-12, 00:33:04,VALID,915.557,VALID,0,VALID,94.2635,VALID,0,VALID,20.2293,VALID,131,VALID,0,
2013-11-12, 00:34:04,VALID,915.54,VALID,0,VALID,94.3093,VALID,0,VALID,20.2293,VALID,145,VALID,0,
2013-11-12, 00:35:04,VALID,915.533,VALID,0,VALID,94.3626,VALID,0,VALID,20.2309,VALID,152,VALID,0,
2013-11-12, 00:36:04,VALID,915.501,VALID,0,VALID,94.4465,VALID,0,VALID,20.2098,VALID,141,VALID,0,
2013-11-12, 00:37:04,VALID,915.486,VALID,0,VALID,94.5151,VALID,0,VALID,20.2098,VALID,125,VALID,0,
2013-11-12, 00:38:04,VALID,915.489,VALID,0,VALID,94.5532,VALID,0,VALID,20.2504,VALID,145,VALID,0,
2013-11-12, 00:39:04,VALID,915.46,VALID,0,VALID,94.5761,VALID,0,VALID,20.2293,VALID,134,VALID,0,
2013-11-12, 00:40:04,VALID,915.46,VALID,0,VALID,94.6295,VALID,0.107441,VALID,20.2098,VALID,145,VALID,0,
2013-11-12, 00:41:04,VALID,915.459,VALID,0,VALID,94.6523,VALID,0,VALID,20.1903,VALID,140,VALID,0,
2013-11-12, 00:42:04,VALID,915.428,VALID,0,VALID,94.6828,VALID,0,VALID,20.2098,VALID,147,VALID,0,
2013-11-12, 00:43:04,VALID,915.395,VALID,0,VALID,94.7057,VALID,0,VALID,20.2098,VALID,136,VALID,0,
2013-11-12, 00:44:04,VALID,915.378,VALID,0,VALID,94.7438,VALID,0,VALID,20.1903,VALID,148,VALID,0,
2013-11-12, 00:45:04,VALID,915.364,VALID,0,VALID,94.7591,VALID,0,VALID,20.1903,VALID,148,VALID,0,
2013-11-12, 00:46:04,VALID,915.364,VALID,0,VALID,94.7896,VALID,0,VALID,20.2114,VALID,142,VALID,0,
2013-11-12, 00:47:04,VALID,915.366,VALID,0,VALID,94.7972,VALID,0,VALID,20.2098,VALID,153,VALID,0,
2013-11-12, 00:48:04,VALID,915.355,VALID,0,VALID,94.7972,VALID,0,VALID,20.2098,VALID,135,VALID,0,
2013-11-12, 00:49:04,VALID,915.307,VALID,0,VALID,94.82,VALID,0.107441,VALID,20.1903,VALID,136,VALID,0,
2013-11-12, 00:50:04,VALID,915.319,VALID,0,VALID,94.8277,VALID,0,VALID,20.2309,VALID,141,VALID,0,
2013-11-12, 00:51:04,VALID,915.27,VALID,0,VALID,94.7972,VALID,0,VALID,20.2114,VALID,134,VALID,0,
2013-11-12, 00:52:04,VALID,915.285,VALID,0,VALID,94.82,VALID,0,VALID,20.2309,VALID,135,VALID,0,
2013-11-12, 00:53:04,VALID,915.278,VALID,0,VALID,94.8277,VALID,0,VALID,20.2098,VALID,147,VALID,0,
2013-11-12, 00:54:04,VALID,915.23,VALID,0,VALID,94.8505,VALID,0,VALID,20.1903,VALID,147,VALID,0,
2013-11-12, 00:55:04,VALID,915.248,VALID,0,VALID,94.9039,VALID,0.107441,VALID,20.2098,VALID,147,VALID,0,
2013-11-12, 00:56:04,VALID,915.219,VALID,0,VALID,94.9268,VALID,0,VALID,20.1903,VALID,147,VALID,0,
2013-11-12, 00:57:04,VALID,915.221,VALID,0,VALID,94.9573,VALID,0.107441,VALID,20.1903,VALID,168,VALID,0,
2013-11-12, 00:58:04,VALID,915.173,VALID,0,VALID,94.9573,VALID,0,VALID,20.2114,VALID,168,VALID,0,
2013-11-12, 00:59:04,VALID,915.183,VALID,0,VALID,94.9649,VALID,0,VALID,20.2098,VALID,168,VALID,0,
2013-11-12, 01:00:04,VALID,915.136,VALID,0,VALID,95.0183,VALID,0,VALID,20.1903,VALID,168,VALID,0,
2013-11-12, 01:01:04,VALID,915.161,VALID,0,VALID,95.0716,VALID,0,VALID,20.2114,VALID,168,VALID,0,
2013-11-12, 01:02:04,VALID,915.147,VALID,0,VALID,95.1479,VALID,0,VALID,20.1513,VALID,168,VALID,0,
2013-11-12, 01:03:04,VALID,915.118,VALID,0,VALID,95.2393,VALID,0,VALID,20.1529,VALID,168,VALID,0,
2013-11-12, 01:04:04,VALID,915.143,VALID,0,VALID,95.3232,VALID,0,VALID,20.1334,VALID,168,VALID,0,
2013-11-12, 01:05:04,VALID,915.123,VALID,0,VALID,95.4299,VALID,0,VALID,20.0928,VALID,168,VALID,0,
2013-11-12, 01:06:04,VALID,915.102,VALID,0,VALID,95.5214,VALID,0,VALID,20.0944,VALID,168,VALID,0,
2013-11-12, 01:07:04,VALID,915.105,VALID,0,VALID,95.6129,VALID,0,VALID,20.0749,VALID,168,VALID,0,
2013-11-12, 01:08:04,VALID,915.088,VALID,0,VALID,95.7044,VALID,0,VALID,20.0749,VALID,168,VALID,0,
2013-11-12, 01:09:04,VALID,915.114,VALID,0,VALID,95.7654,VALID,0,VALID,20.0148,VALID,168,VALID,0,
2013-11-12, 01:10:04,VALID,915.084,VALID,0,VALID,95.8111,VALID,0,VALID,20.0148,VALID,168,VALID,0,
2013-11-12, 01:11:04,VALID,915.06,VALID,0,VALID,95.8721,VALID,0,VALID,19.9953,VALID,168,VALID,0,
2013-11-12, 01:12:04,VALID,915.093,VALID,0,VALID,95.9026,VALID,0.107441,VALID,19.9758,VALID,168,VALID,0,
2013-11-12, 01:13:04,VALID,915.038,VALID,0,VALID,95.9559,VALID,0,VALID,19.9773,VALID,168,VALID,0,
2013-11-12, 01:14:04,VALID,915.064,VALID,0,VALID,96.0322,VALID,0,VALID,19.9758,VALID,168,VALID,0,
2013-11-12, 01:15:04,VALID,915.045,VALID,0,VALID,96.0703,VALID,0,VALID,19.9563,VALID,168,VALID,0,
2013-11-12, 01:16:04,VALID,915.053,VALID,0,VALID,96.0932,VALID,0.107441,VALID,19.9563,VALID,168,VALID,0,
2013-11-12, 01:17:04,VALID,915.05,VALID,0,VALID,96.1389,VALID,0.107441,VALID,19.9563,VALID,168,VALID,0,
2013-11-12, 01:18:04,VALID,915.007,VALID,0,VALID,96.1541,VALID,0,VALID,19.9563,VALID,168,VALID,0,
2013-11-12, 01:19:04,VALID,915.045,VALID,0,VALID,96.2075,VALID,0.107441,VALID,19.9563,VALID,168,VALID,0,
2013-11-12, 01:20:04,VALID,915.027,VALID,0,VALID,96.2304,VALID,0,VALID,19.9563,VALID,168,VALID,0,
2013-11-12, 01:21:04,VALID,915.024,VALID,0,VALID,96.2609,VALID,0,VALID,19.9368,VALID,168,VALID,0,
2013-11-12, 01:22:04,VALID,915.001,VALID,0,VALID,96.2761,VALID,0,VALID,19.9158,VALID,168,VALID,0,
2013-11-12, 01:23:04,VALID,915,VALID,0,VALID,96.299,VALID,0,VALID,19.9173,VALID,168,VALID,0,
2013-11-12, 01:24:04,VALID,914.998,VALID,0,VALID,96.3142,VALID,0,VALID,19.9188,VALID,168,VALID,0,
2013-11-12, 01:25:04,VALID,914.99,VALID,0,VALID,96.3295,VALID,0,VALID,19.8993,VALID,168,VALID,0,
2013-11-12, 01:26:04,VALID,914.975,VALID,0,VALID,96.3371,VALID,0,VALID,19.8993,VALID,168,VALID,0,
2013-11-12, 01:27:04,VALID,914.964,VALID,0,VALID,96.3676,VALID,0,VALID,19.8993,VALID,168,VALID,0,
2013-11-12, 01:28:04,VALID,914.952,VALID,0,VALID,96.3676,VALID,0,VALID,19.8993,VALID,168,VALID,0,
2013-11-12, 01:29:04,VALID,914.942,VALID,0,VALID,96.3829,VALID,0,VALID,19.8798,VALID,168,VALID,0,
2013-11-12, 01:30:04,VALID,914.953,VALID,0,VALID,96.3981,VALID,0,VALID,19.8798,VALID,168,VALID,0,
2013-11-12, 01:31:04,VALID,914.901,VALID,0,VALID,96.3829,VALID,0,VALID,19.8798,VALID,168,VALID,0,
2013-11-12, 01:32:04,VALID,914.898,VALID,0,VALID,96.4438,VALID,0,VALID,19.8798,VALID,168,VALID,0,
2013-11-12, 01:33:04,VALID,914.91,VALID,0,VALID,96.4133,VALID,0,VALID,19.8798,VALID,167,VALID,0,
2013-11-12, 01:34:04,VALID,914.895,VALID,0,VALID,96.4286,VALID,0,VALID,19.8993,VALID,165,VALID,0,
2013-11-12, 01:35:04,VALID,914.864,VALID,0,VALID,96.4362,VALID,0,VALID,19.8783,VALID,165,VALID,0,
2013-11-12, 01:36:04,VALID,914.835,VALID,0,VALID,96.4515,VALID,0,VALID,19.8993,VALID,165,VALID,0,
2013-11-12, 01:37:04,VALID,914.85,VALID,0,VALID,96.4591,VALID,0,VALID,19.8993,VALID,165,VALID,0,
2013-11-12, 01:38:04,VALID,914.807,VALID,0,VALID,96.4591,VALID,0,VALID,19.8993,VALID,165,VALID,0,
2013-11-12, 01:39:04,VALID,914.783,VALID,0,VALID,96.4591,VALID,0,VALID,19.8798,VALID,165,VALID,0,
2013-11-12, 01:40:04,VALID,914.8,VALID,0,VALID,96.4515,VALID,0,VALID,19.8993,VALID,165,VALID,0,
2013-11-12, 01:41:04,VALID,914.789,VALID,0,VALID,96.4743,VALID,0,VALID,19.8783,VALID,165,VALID,0,
2013-11-12, 01:42:04,VALID,914.76,VALID,0,VALID,96.4667,VALID,0,VALID,19.9383,VALID,165,VALID,0,
2013-11-12, 01:43:04,VALID,914.762,VALID,0,VALID,96.4896,VALID,0,VALID,19.8978,VALID,165,VALID,0,
2013-11-12, 01:44:04,VALID,914.764,VALID,0,VALID,96.4972,VALID,0,VALID,19.9188,VALID,165,VALID,0,
2013-11-12, 01:45:04,VALID,914.768,VALID,0,VALID,96.4743,VALID,0,VALID,19.9188,VALID,165,VALID,0,
2013-11-12, 01:46:04,VALID,914.756,VALID,0,VALID,96.4819,VALID,0,VALID,19.9173,VALID,165,VALID,0,
2013-11-12, 01:47:04,VALID,914.752,VALID,0,VALID,96.4591,VALID,0,VALID,19.9188,VALID,165,VALID,0,
2013-11-12, 01:48:04,VALID,914.721,VALID,0,VALID,96.4819,VALID,0,VALID,19.8993,VALID,165,VALID,0,
2013-11-12, 01:49:04,VALID,914.767,VALID,0,VALID,96.4667,VALID,0,VALID,19.8993,VALID,165,VALID,0,
2013-11-12, 01:50:04,VALID,914.692,VALID,0,VALID,96.4591,VALID,0,VALID,19.8993,VALID,167,VALID,0,
2013-11-12, 01:51:04,VALID,914.685,VALID,0,VALID,96.4591,VALID,0,VALID,19.8798,VALID,167,VALID,0,
2013-11-12, 01:52:04,VALID,914.663,VALID,0,VALID,96.4896,VALID,0,VALID,19.8798,VALID,167,VALID,0,
2013-11-12, 01:53:04,VALID,914.67,VALID,0,VALID,96.4743,VALID,0.107441,VALID,19.8978,VALID,167,VALID,0,
2013-11-12, 01:54:04,VALID,914.659,VALID,0,VALID,96.4743,VALID,0.107441,VALID,19.8978,VALID,167,VALID,0,
2013-11-12, 01:55:04,VALID,914.664,VALID,0,VALID,96.4896,VALID,0.107441,VALID,19.8978,VALID,167,VALID,0,
2013-11-12, 01:56:04,VALID,914.656,VALID,0,VALID,96.5048,VALID,0.107441,VALID,19.8978,VALID,167,VALID,0,
2013-11-12, 01:57:04,VALID,914.624,VALID,0,VALID,96.4896,VALID,0,VALID,19.8978,VALID,167,VALID,0,
2013-11-12, 01:58:04,VALID,914.624,VALID,0,VALID,96.5201,VALID,0.107441,VALID,19.8768,VALID,167,VALID,0,
2013-11-12, 01:59:04,VALID,914.624,VALID,0,VALID,96.5048,VALID,0.107441,VALID,19.8963,VALID,167,VALID,0,
2013-11-12, 02:00:04,VALID,914.59,VALID,0,VALID,96.5201,VALID,0.107441,VALID,19.9368,VALID,167,VALID,0,
2013-11-12, 02:01:04,VALID,914.562,VALID,0,VALID,96.5277,VALID,0,VALID,19.9368,VALID,167,VALID,0,
2013-11-12, 02:02:04,VALID,914.562,VALID,0,VALID,96.5429,VALID,0.107441,VALID,19.9173,VALID,167,VALID,0,
2013-11-12, 02:03:04,VALID,914.554,VALID,0,VALID,96.5353,VALID,0.107441,VALID,19.9563,VALID,166,VALID,0,
2013-11-12, 02:04:04,VALID,914.539,VALID,0,VALID,96.5506,VALID,0,VALID,19.9368,VALID,166,VALID,0,
2013-11-12, 02:05:04,VALID,914.521,VALID,0,VALID,96.5429,VALID,0.107441,VALID,19.9758,VALID,166,VALID,0,
2013-11-12, 02:06:04,VALID,914.49,VALID,0,VALID,96.5353,VALID,0.107441,VALID,19.9758,VALID,166,VALID,0,
2013-11-12, 02:07:04,VALID,914.48,VALID,0,VALID,96.5506,VALID,0.107441,VALID,19.9758,VALID,166,VALID,0,
2013-11-12, 02:08:04,VALID,914.488,VALID,0,VALID,96.5353,VALID,0,VALID,19.9563,VALID,166,VALID,0,
2013-11-12, 02:09:04,VALID,914.463,VALID,0,VALID,96.5277,VALID,0,VALID,19.9563,VALID,166,VALID,0,
2013-11-12, 02:10:04,VALID,914.469,VALID,0,VALID,96.5429,VALID,0.107441,VALID,19.9758,VALID,166,VALID,0,
2013-11-12, 02:11:04,VALID,914.423,VALID,0,VALID,96.5353,VALID,0,VALID,19.9758,VALID,166,VALID,0,
2013-11-12, 02:12:04,VALID,914.395,VALID,0,VALID,96.5201,VALID,0,VALID,20.0148,VALID,166,VALID,0,
2013-11-12, 02:13:04,VALID,914.42,VALID,0,VALID,96.5201,VALID,0.107441,VALID,19.9953,VALID,166,VALID,0,
2013-11-12, 02:14:04,VALID,914.383,VALID,0,VALID,96.5048,VALID,0.107441,VALID,19.9953,VALID,167,VALID,0,
2013-11-12, 02:15:04,VALID,914.374,VALID,0,VALID,96.5048,VALID,0.107441,VALID,19.9953,VALID,166,VALID,0,
2013-11-12, 02:16:04,VALID,914.346,VALID,0,VALID,96.4972,VALID,0,VALID,19.9758,VALID,153,VALID,0,
2013-11-12, 02:17:04,VALID,914.357,VALID,0,VALID,96.5124,VALID,0.107441,VALID,19.9953,VALID,153,VALID,0,
2013-11-12, 02:18:04,VALID,914.323,VALID,0,VALID,96.4819,VALID,0.107441,VALID,19.9953,VALID,153,VALID,0,
2013-11-12, 02:19:04,VALID,914.321,VALID,0,VALID,96.4743,VALID,0.214882,VALID,19.9548,VALID,153,VALID,0,
2013-11-12, 02:20:04,VALID,914.314,VALID,0,VALID,96.4819,VALID,0.107441,VALID,19.9758,VALID,153,VALID,0,
2013-11-12, 02:21:04,VALID,914.312,VALID,0,VALID,96.4591,VALID,0,VALID,19.9563,VALID,153,VALID,0,
2013-11-12, 02:22:04,VALID,914.272,VALID,0,VALID,96.4819,VALID,0.107441,VALID,19.9563,VALID,153,VALID,0,
2013-11-12, 02:23:04,VALID,914.275,VALID,0,VALID,96.4591,VALID,0,VALID,19.9383,VALID,153,VALID,0,
2013-11-12, 02:24:04,VALID,914.281,VALID,0,VALID,96.4362,VALID,0,VALID,19.9578,VALID,153,VALID,0,
2013-11-12, 02:25:04,VALID,914.231,VALID,0,VALID,96.4515,VALID,0,VALID,19.9773,VALID,153,VALID,0,
2013-11-12, 02:26:04,VALID,914.221,VALID,0,VALID,96.4286,VALID,0,VALID,19.9788,VALID,153,VALID,0,
2013-11-12, 02:27:04,VALID,914.235,VALID,0,VALID,96.421,VALID,0,VALID,19.9578,VALID,153,VALID,0,
2013-11-12, 02:28:04,VALID,914.203,VALID,0,VALID,96.421,VALID,0,VALID,19.9188,VALID,153,VALID,0,
2013-11-12, 02:29:04,VALID,914.191,VALID,0,VALID,96.4362,VALID,0,VALID,19.8993,VALID,153,VALID,0,
2013-11-12, 02:30:04,VALID,914.16,VALID,0,VALID,96.4286,VALID,0,VALID,19.9188,VALID,153,VALID,0,
2013-11-12, 02:31:04,VALID,914.177,VALID,0,VALID,96.3905,VALID,0,VALID,19.8993,VALID,153,VALID,0,
2013-11-12, 02:32:04,VALID,914.199,VALID,0,VALID,96.4133,VALID,0,VALID,19.8798,VALID,153,VALID,0,
2013-11-12, 02:33:04,VALID,914.165,VALID,0,VALID,96.4438,VALID,0,VALID,19.8603,VALID,153,VALID,0,
2013-11-12, 02:34:04,VALID,914.16,VALID,0,VALID,96.4515,VALID,0,VALID,19.8603,VALID,153,VALID,0,
2013-11-12, 02:35:04,VALID,914.173,VALID,0,VALID,96.4591,VALID,0,VALID,19.8603,VALID,153,VALID,0,
2013-11-12, 02:36:04,VALID,914.188,VALID,0,VALID,96.4515,VALID,0,VALID,19.8813,VALID,153,VALID,0,
2013-11-12, 02:37:04,VALID,914.162,VALID,0,VALID,96.4819,VALID,0,VALID,19.8603,VALID,153,VALID,0,
2013-11-12, 02:38:04,VALID,914.161,VALID,0,VALID,96.4743,VALID,0,VALID,19.8603,VALID,153,VALID,0,
2013-11-12, 02:39:04,VALID,914.135,VALID,0,VALID,96.4896,VALID,0,VALID,19.8798,VALID,153,VALID,0,
2013-11-12, 02:40:04,VALID,914.118,VALID,0,VALID,96.4972,VALID,0,VALID,19.8393,VALID,153,VALID,0,
2013-11-12, 02:41:04,VALID,914.124,VALID,0,VALID,96.5201,VALID,0,VALID,19.8603,VALID,153,VALID,0,
2013-11-12, 02:42:04,VALID,914.108,VALID,0,VALID,96.5429,VALID,0,VALID,19.8198,VALID,153,VALID,0,
2013-11-12, 02:43:04,VALID,914.084,VALID,0,VALID,96.5353,VALID,0,VALID,19.8393,VALID,153,VALID,0,
2013-11-12, 02:44:04,VALID,914.109,VALID,0,VALID,96.5429,VALID,0,VALID,19.8393,VALID,153,VALID,0,
2013-11-12, 02:45:05,VALID,914.095,VALID,0,VALID,96.5658,VALID,0,VALID,19.8393,VALID,153,VALID,0,
2013-11-12, 02:46:05,VALID,914.078,VALID,0,VALID,96.5582,VALID,0,VALID,19.8183,VALID,153,VALID,0,
2013-11-12, 02:47:05,VALID,914.078,VALID,0,VALID,96.5582,VALID,0,VALID,19.8603,VALID,153,VALID,0,
2013-11-12, 02:48:05,VALID,914.075,VALID,0,VALID,96.5582,VALID,0,VALID,19.8393,VALID,153,VALID,0,
2013-11-12, 02:49:05,VALID,914.069,VALID,0,VALID,96.5734,VALID,0,VALID,19.8393,VALID,153,VALID,0,
2013-11-12, 02:50:05,VALID,914.055,VALID,0,VALID,96.5887,VALID,0,VALID,19.8003,VALID,153,VALID,0,
2013-11-12, 02:51:05,VALID,914.047,VALID,0,VALID,96.5963,VALID,0,VALID,19.8198,VALID,153,VALID,0,
2013-11-12, 02:52:05,VALID,914.06,VALID,0,VALID,96.6039,VALID,0,VALID,19.8198,VALID,153,VALID,0,
2013-11-12, 02:53:05,VALID,914.028,VALID,0,VALID,96.5811,VALID,0,VALID,19.8003,VALID,153,VALID,0,
2013-11-12, 02:54:05,VALID,914.04,VALID,0,VALID,96.6039,VALID,0,VALID,19.8003,VALID,153,VALID,0,
2013-11-12, 02:55:05,VALID,914.031,VALID,0,VALID,96.6039,VALID,0,VALID,19.8213,VALID,153,VALID,0,
2013-11-12, 02:56:05,VALID,914.018,VALID,0,VALID,96.6115,VALID,0,VALID,19.8213,VALID,153,VALID,0,
2013-11-12, 02:57:05,VALID,914.017,VALID,0,VALID,96.6268,VALID,0,VALID,19.7613,VALID,153,VALID,0,
2013-11-12, 02:58:05,VALID,914.026,VALID,0,VALID,96.6192,VALID,0,VALID,19.8018,VALID,153,VALID,0,
2013-11-12, 02:59:05,VALID,914.004,VALID,0,VALID,96.6268,VALID,0,VALID,19.7808,VALID,153,VALID,0,
2013-11-12, 03:00:05,VALID,914.015,VALID,0,VALID,96.6344,VALID,0,VALID,19.7808,VALID,153,VALID,0,
2013-11-12, 03:01:05,VALID,913.982,VALID,0,VALID,96.6268,VALID,0,VALID,19.7808,VALID,153,VALID,0,
2013-11-12, 03:02:05,VALID,914.003,VALID,0,VALID,96.6497,VALID,0,VALID,19.8003,VALID,153,VALID,0,
2013-11-12, 03:03:05,VALID,913.963,VALID,0,VALID,96.6497,VALID,0,VALID,19.8003,VALID,153,VALID,0,
2013-11-12, 03:04:05,VALID,913.983,VALID,0,VALID,96.6878,VALID,0,VALID,19.8003,VALID,153,VALID,0,
2013-11-12, 03:05:05,VALID,913.986,VALID,0,VALID,96.6878,VALID,0,VALID,19.8198,VALID,153,VALID,0,
2013-11-12, 03:06:05,VALID,913.941,VALID,0,VALID,96.6802,VALID,0,VALID,19.8198,VALID,153,VALID,0,
2013-11-12, 03:07:05,VALID,913.98,VALID,0,VALID,96.703,VALID,0,VALID,19.8198,VALID,153,VALID,0,
2013-11-12, 03:08:05,VALID,913.968,VALID,0,VALID,96.6954,VALID,0,VALID,19.8393,VALID,153,VALID,0,
2013-11-12, 03:09:05,VALID,913.983,VALID,0,VALID,96.7183,VALID,0,VALID,19.8588,VALID,153,VALID,0,
2013-11-12, 03:10:05,VALID,913.976,VALID,0,VALID,96.6878,VALID,0,VALID,19.8393,VALID,153,VALID,0,
2013-11-12, 03:11:05,VALID,913.968,VALID,0,VALID,96.7183,VALID,0,VALID,19.8393,VALID,153,VALID,0,
2013-11-12, 03:12:05,VALID,913.962,VALID,0,VALID,96.7335,VALID,0,VALID,19.8978,VALID,153,VALID,0,
2013-11-12, 03:13:05,VALID,913.971,VALID,0,VALID,96.7411,VALID,0,VALID,19.8978,VALID,153,VALID,0,
2013-11-12, 03:14:05,VALID,913.968,VALID,0,VALID,96.7183,VALID,0.107441,VALID,19.9368,VALID,153,VALID,0,
2013-11-12, 03:15:05,VALID,913.986,VALID,0,VALID,96.7335,VALID,0,VALID,19.9368,VALID,153,VALID,0,
2013-11-12, 03:16:05,VALID,913.992,VALID,0.2,VALID,96.7411,VALID,0,VALID,19.9368,VALID,153,VALID,0,
2013-11-12, 03:17:05,VALID,913.984,VALID,0,VALID,96.7411,VALID,0,VALID,19.8978,VALID,153,VALID,0,
2013-11-12, 03:18:05,VALID,914.02,VALID,0,VALID,96.7411,VALID,0.107441,VALID,19.8978,VALID,153,VALID,0,
2013-11-12, 03:19:05,VALID,913.994,VALID,0,VALID,96.7335,VALID,0,VALID,19.8978,VALID,153,VALID,0,
2013-11-12, 03:20:05,VALID,914.012,VALID,0,VALID,96.7488,VALID,0,VALID,19.8978,VALID,153,VALID,0,
2013-11-12, 03:21:05,VALID,914.002,VALID,0,VALID,96.7564,VALID,0,VALID,19.8783,VALID,153,VALID,0,
2013-11-12, 03:22:05,VALID,914.032,VALID,0,VALID,96.764,VALID,0,VALID,19.8993,VALID,153,VALID,0,
2013-11-12, 03:23:05,VALID,914.016,VALID,0,VALID,96.7564,VALID,0.107441,VALID,19.8588,VALID,153,VALID,0,
2013-11-12, 03:24:05,VALID,914.002,VALID,0,VALID,96.7716,VALID,0.107441,VALID,19.8588,VALID,153,VALID,0,
2013-11-12, 03:25:05,VALID,913.993,VALID,0,VALID,96.7869,VALID,0,VALID,19.8393,VALID,153,VALID,0,
2013-11-12, 03:26:05,VALID,913.985,VALID,0,VALID,96.7716,VALID,0,VALID,19.8393,VALID,153,VALID,0,
2013-11-12, 03:27:05,VALID,913.968,VALID,0,VALID,96.7945,VALID,0.107441,VALID,19.8588,VALID,153,VALID,0,
2013-11-12, 03:28:05,VALID,913.967,VALID,0,VALID,96.7945,VALID,0,VALID,19.8393,VALID,153,VALID,0,
2013-11-12, 03:29:05,VALID,913.972,VALID,0,VALID,96.8174,VALID,0.107441,VALID,19.8588,VALID,153,VALID,0,
2013-11-12, 03:30:05,VALID,913.981,VALID,0,VALID,96.8174,VALID,0.107441,VALID,19.8978,VALID,153,VALID,0,
2013-11-12, 03:31:05,VALID,913.93,VALID,0,VALID,96.825,VALID,0,VALID,19.8978,VALID,153,VALID,0,
2013-11-12, 03:32:05,VALID,913.949,VALID,0,VALID,96.825,VALID,0.107441,VALID,19.8573,VALID,153,VALID,0,
2013-11-12, 03:33:05,VALID,913.961,VALID,0,VALID,96.8326,VALID,0.107441,VALID,19.8978,VALID,153,VALID,0,
2013-11-12, 03:34:05,VALID,913.964,VALID,0,VALID,96.8326,VALID,0.107441,VALID,19.8978,VALID,153,VALID,0,
2013-11-12, 03:35:05,VALID,913.968,VALID,0,VALID,96.8631,VALID,0.107441,VALID,19.8978,VALID,153,VALID,0,
2013-11-12, 03:36:05,VALID,913.951,VALID,0,VALID,96.8631,VALID,0.107441,VALID,19.8783,VALID,153,VALID,0,
2013-11-12, 03:37:05,VALID,913.955,VALID,0,VALID,96.8707,VALID,0,VALID,19.8978,VALID,153,VALID,0,
2013-11-12, 03:38:05,VALID,913.945,VALID,0,VALID,96.8707,VALID,0,VALID,19.8963,VALID,153,VALID,0,
2013-11-12, 03:39:05,VALID,913.947,VALID,0,VALID,96.886,VALID,0.107441,VALID,19.8978,VALID,153,VALID,0,
2013-11-12, 03:40:05,VALID,913.968,VALID,0,VALID,96.8784,VALID,0.107441,VALID,19.9368,VALID,153,VALID,0,
2013-11-12, 03:41:05,VALID,913.964,VALID,0,VALID,96.886,VALID,0.107441,VALID,19.9173,VALID,153,VALID,0,
2013-11-12, 03:42:05,VALID,913.962,VALID,0,VALID,96.8784,VALID,0,VALID,19.9173,VALID,153,VALID,0,
2013-11-12, 03:43:05,VALID,913.955,VALID,0,VALID,96.8936,VALID,0.107441,VALID,19.9353,VALID,153,VALID,0,
2013-11-12, 03:44:05,VALID,914.002,VALID,0,VALID,96.9012,VALID,0.107441,VALID,19.9368,VALID,153,VALID,0,
2013-11-12, 03:45:05,VALID,913.974,VALID,0,VALID,96.9089,VALID,0.107441,VALID,19.9368,VALID,153,VALID,0,
2013-11-12, 03:46:05,VALID,914.002,VALID,0,VALID,96.9089,VALID,0.107441,VALID,19.9173,VALID,153,VALID,0,
2013-11-12, 03:47:05,VALID,913.969,VALID,0,VALID,96.9317,VALID,0.107441,VALID,19.9173,VALID,153,VALID,0,
2013-11-12, 03:48:05,VALID,913.968,VALID,0,VALID,96.9165,VALID,0,VALID,19.8963,VALID,153,VALID,0,
2013-11-12, 03:49:05,VALID,913.988,VALID,0,VALID,96.9241,VALID,0.107441,VALID,19.9173,VALID,153,VALID,0,
2013-11-12, 03:50:05,VALID,913.953,VALID,0,VALID,96.9317,VALID,0.107441,VALID,19.9173,VALID,153,VALID,0,
2013-11-12, 03:51:05,VALID,913.944,VALID,0,VALID,96.9241,VALID,0.107441,VALID,19.9173,VALID,153,VALID,0,
2013-11-12, 03:52:05,VALID,913.95,VALID,0,VALID,96.9165,VALID,0.107441,VALID,19.8978,VALID,153,VALID,0,
2013-11-12, 03:53:05,VALID,913.944,VALID,0,VALID,96.947,VALID,0.107441,VALID,19.8978,VALID,153,VALID,0,
2013-11-12, 03:54:05,VALID,913.955,VALID,0,VALID,96.947,VALID,0,VALID,19.8978,VALID,153,VALID,0,
2013-11-12, 03:55:05,VALID,913.945,VALID,0,VALID,96.9394,VALID,0,VALID,19.9173,VALID,153,VALID,0,
2013-11-12, 03:56:05,VALID,913.967,VALID,0,VALID,96.9546,VALID,0,VALID,19.9173,VALID,153,VALID,0,